Location: Asheville, NC
(35.6000°N, 82.5500°W)
Time: 12:51:46
(UTC-05:00)

Iridium 28 - Pass Details

Date: 10 January 2018
Orbit: 772 x 774 km, 86.4° (Epoch: 16 January)

Event Time Altitude Azimuth Distance (km) Brightness Sun altitude
Rises 19:06:10 0° 342° (NNW) 3,249 8.8 -18.0°
Reaches altitude 10° 19:08:57 10° 328° (NNW) 2,318 8.2 -18.6°
Maximum altitude 19:12:55 23° 278° (W) 1,605 7.9 -19.3°
Drops below altitude 10° 19:16:53 10° 227° (SW) 2,308 8.8 -20.1°
Sets 19:19:39 0° 213° (SSW) 3,230 9.4 -20.7°
